FW5156 Weather Reports


Display with metric or nautical units.
time (UTC)temp
F
wind
direction
speed
MPH
gust
MPH
rain 1hr
in
rain 24hr
in
rain mn
in
humidity
%
barometer
mb
20260906163536 79 0.0 4.0 0.00 0.00 0.00 62 1017.9
20260906162516 79 0.0 4.0 0.00 0.00 0.00 62 1018.0
20260906161536 78 0.0 5.0 0.00 0.00 0.00 63 1018.1
20260906160516 78 0.0 4.0 0.00 0.00 0.00 62 1018.2
20260906155516 78 0.0 3.0 0.00 0.00 0.00 62 1018.4
20260906154536 78 0.0 4.0 0.00 0.00 0.00 66 1018.2
20260906153516 77 0.0 1.0 0.00 0.00 0.00 68 1018.3
20260906152516 76 0.0 3.0 0.00 0.00 0.00 69 1018.3
20260906151516 76 0.0 5.0 0.00 0.00 0.00 69 1018.3
20260906150556 75 0.0 4.0 0.00 0.00 0.00 70 1018.3
20260906145516 75 0.0 3.0 0.00 0.00 0.00 69 1018.3
20260906144516 74 0.0 3.0 0.00 0.00 0.00 71 1018.3
20260906143516 74 0.0 4.0 0.00 0.00 0.00 71 1018.1
20260906142516 74 0.0 1.0 0.00 0.00 0.00 71 1017.9
20260906141516 73 0.0 4.0 0.00 0.00 0.00 74 1018.0
20260906140516 72 0.0 4.0 0.00 0.00 0.00 74 1017.7
20260906135516 72 0.0 2.0 0.00 0.00 0.00 77 1017.7
20260906134516 71 0.0 3.0 0.00 0.00 0.00 77 1017.8
20260906133536 71 0.0 3.0 0.00 0.00 0.00 77 1017.9
20260906132516 70 0.0 2.0 0.00 0.00 0.00 79 1017.6
20260906131516 69 0.0 4.0 0.00 0.00 0.00 81 1017.4
20260906130516 68 90 1.0 5.0 0.00 0.00 0.00 81 1017.3
20260906125516 68 113 1.0 4.0 0.00 0.00 0.00 83 1017.2
20260906124516 67 0.0 1.0 0.00 0.01 0.00 83 1017.0
20260906123516 66 0.0 0.0 0.00 0.01 0.00 83 1017.0
20260906122536 66 0.0 0.0 0.00 0.04 0.00 83 1016.8
20260906121516 67 0.0 0.0 0.00 0.04 0.00 83 1016.6
20260906120516 67 0.0 0.0 0.00 0.04 0.00 83 1016.6
20260906115516 67 0.0 2.0 0.00 0.04 0.00 82 1016.4
20260906114516 67 0.0 0.0 0.00 0.04 0.00 82 1016.3
20260906113516 67 0.0 0.0 0.00 0.04 0.00 82 1016.4
20260906112516 67 0.0 2.0 0.00 0.04 0.00 82 1016.3
20260906111516 67 0.0 0.0 0.00 0.04 0.00 83 1016.3
20260906110516 67 0.0 0.0 0.00 0.04 0.00 84 1016.2
20260906105516 67 0.0 0.0 0.00 0.04 0.00 84 1016.1
20260906104536 67 0.0 0.0 0.00 0.04 0.00 84 1016.0
20260906103516 67 0.0 0.0 0.00 0.04 0.00 85 1016.0
20260906102516 67 0.0 0.0 0.00 0.04 0.00 85 1015.8
20260906101516 67 0.0 0.0 0.00 0.04 0.00 84 1016.0
20260906100516 67 0.0 0.0 0.00 0.04 0.00 84 1015.9
20260906095516 68 0.0 2.0 0.00 0.04 0.00 84 1015.7
20260906094516 68 0.0 0.0 0.00 0.04 0.00 83 1015.6
20260906093516 68 0.0 0.0 0.00 0.04 0.00 83 1015.7
20260906092516 69 0.0 0.0 0.00 0.04 0.00 85 1015.4
20260906091536 69 0.0 1.0 0.00 0.04 0.00 85 1015.5
20260906090536 70 0.0 4.0 0.00 0.04 0.00 86 1015.6
20260906085516 70 0.0 0.0 0.00 0.04 0.00 87 1015.6
20260906084536 71 0.0 0.0 0.00 0.04 0.00 88 1015.5
20260906083516 72 0.0 3.0 0.00 0.04 0.00 91 1015.3
20260906082516 72 0 1.0 5.0 0.00 0.04 0.00 92 1015.4
20260906081536 72 0.0 0.0 0.00 0.04 0.00 93 1015.3
20260906080516 72 0.0 2.0 0.00 0.04 0.00 93 1015.2
20260906075516 72 0.0 2.0 0.00 0.04 0.00 93 1015.2
20260906074536 72 0.0 0.0 0.00 0.04 0.00 93 1015.2
20260906073516 72 0.0 1.0 0.00 0.04 0.00 93 1015.2
20260906072516 72 0.0 0.0 0.00 0.04 0.00 93 1015.1
20260906071516 72 0.0 0.0 0.00 0.04 0.00 93 1015.1
20260906070516 73 0.0 0.0 0.00 0.04 0.00 93 1015.2
20260906065516 73 0.0 0.0 0.00 0.04 0.00 93 1015.2
20260906064516 73 0.0 0.0 0.00 0.04 0.00 92 1015.3
20260906063536 73 0.0 0.0 0.00 0.04 0.00 92 1015.2
20260906062516 73 0.0 2.0 0.00 0.04 0.00 92 1015.3
20260906061516 73 0.0 0.0 0.00 0.04 0.00 92 1015.2
20260906060516 74 0.0 0.0 0.00 0.04 0.00 92 1015.2
20260906055516 74 0.0 2.0 0.00 0.04 0.00 91 1015.3
20260906054516 74 0.0 2.0 0.00 0.04 0.00 91 1015.1
20260906053516 74 0.0 0.0 0.00 0.04 0.00 91 1015.0
20260906052556 74 0.0 0.0 0.00 0.04 0.00 91 1014.9
20260906051516 75 0.0 0.0 0.00 0.04 0.00 91 1015.0
20260906050536 75 0.0 1.0 0.00 0.04 0.00 90 1014.9
20260906045516 75 0.0 0.0 0.00 0.04 0.00 90 1014.8
20260906044516 75 0.0 0.0 0.00 0.04 0.00 90 1014.6
20260906043516 76 0.0 0.0 0.00 0.04 0.00 90 1014.5
20260906042516 76 0.0 0.0 0.00 0.04 0.00 89 1014.5
20260906041516 76 0.0 0.0 0.00 0.04 0.00 89 1014.5
20260906040516 76 0.0 0.0 0.00 0.04 0.00 89 1014.5
20260906035516 76 0.0 0.0 0.00 0.04 0.04 89 1014.5
20260906034516 76 0.0 0.0 0.00 0.04 0.04 89 1014.4
20260906033556 76 0.0 0.0 0.00 0.04 0.04 89 1014.3
20260906032516 76 0.0 0.0 0.00 0.04 0.04 89 1014.2
20260906031516 77 0.0 0.0 0.00 0.04 0.04 89 1014.1
20260906030516 77 0.0 0.0 0.00 0.04 0.04 89 1014.1
20260906025516 77 0.0 0.0 0.00 0.04 0.04 89 1014.0
20260906024516 77 0.0 0.0 0.00 0.04 0.04 89 1013.9
20260906023516 77 0.0 0.0 0.00 0.04 0.04 89 1013.9
20260906022516 77 0.0 0.0 0.00 0.04 0.04 88 1013.7
20260906021536 77 0.0 0.0 0.00 0.04 0.04 88 1013.6
20260906020556 77 0.0 0.0 0.00 0.04 0.04 88 1013.5
20260906015516 77 0.0 0.0 0.00 0.04 0.04 88 1013.2
20260906014556 77 0.0 0.0 0.00 0.04 0.04 88 1013.2
20260906013516 77 0.0 0.0 0.00 0.04 0.04 87 1013.0
20260906012516 77 0.0 0.0 0.00 0.04 0.04 87 1013.0
20260906011516 77 0.0 0.0 0.00 0.04 0.04 87 1012.8
20260906010516 77 0.0 0.0 0.00 0.04 0.04 86 1012.6
20260906005516 77 0.0 0.0 0.00 0.04 0.04 86 1012.5
20260906004536 77 0.0 0.0 0.00 0.04 0.04 87 1012.3
20260906003516 78 0.0 0.0 0.00 0.04 0.04 86 1012.4
20260906002516 78 0.0 0.0 0.00 0.04 0.04 86 1012.3
20260906001516 79 0.0 0.0 0.00 0.04 0.04 85 1012.4
20260906000516 79 0.0 0.0 0.00 0.04 0.04 85 1012.5
20260905235516 79 0.0 0.0 0.00 0.04 0.04 84 1012.4
20260905234516 80 0.0 0.0 0.00 0.04 0.04 84 1012.5
20260905233516 81 0.0 0.0 0.00 0.04 0.04 85 1012.5
20260905232516 81 0.0 0.0 0.00 0.04 0.04 85 1012.6
20260905231516 82 0.0 0.0 0.00 0.04 0.04 84 1012.5
20260905230516 82 0.0 0.0 0.00 0.04 0.04 83 1012.4
20260905225516 83 0.0 0.0 0.00 0.04 0.04 82 1012.3
20260905224516 84 0.0 0.0 0.00 0.04 0.04 80 1012.4
20260905223516 85 0.0 0.0 0.00 0.04 0.04 78 1012.4
20260905222516 85 0.0 1.0 0.00 0.04 0.04 78 1012.2
20260905221516 86 0.0 0.0 0.00 0.04 0.04 76 1012.4
20260905220516 88 0.0 1.0 0.00 0.04 0.04 74 1012.4
20260905215516 88 0.0 0.0 0.00 0.04 0.04 74 1012.0
20260905214516 89 0.0 0.0 0.00 0.04 0.04 70 1012.5
20260905213516 91 0.0 0.0 0.00 0.04 0.04 68 1012.6
20260905212516 92 0.0 0.0 0.00 0.04 0.04 65 1012.6
20260905211516 92 0.0 2.0 0.00 0.04 0.04 62 1012.5
20260905210516 93 0.0 0.0 0.00 0.04 0.04 61 1012.9
20260905205516 94 225 1.0 3.0 0.00 0.04 0.04 57 1012.8
20260905204516 94 0.0 2.0 0.00 0.04 0.04 58 1012.9
20260905203536 94 0.0 3.0 0.00 0.04 0.04 58 1013.1
20260905202516 94 270 1.0 6.0 0.00 0.04 0.04 58 1013.2
20260905201536 93 0.0 3.0 0.00 0.04 0.04 58 1013.2
20260905200516 93 270 1.0 5.0 0.00 0.04 0.04 56 1013.2
20260905195516 93 0.0 3.0 0.00 0.04 0.04 59 1013.3
20260905194516 93 0.0 5.0 0.00 0.04 0.04 59 1013.4
20260905193516 93 0.0 3.0 0.00 0.04 0.04 60 1013.5
20260905192516 93 0.0 3.0 0.00 0.04 0.04 60 1013.7
20260905191516 92 45 1.0 5.0 0.00 0.04 0.04 62 1013.8
20260905190516 92 0.0 1.0 0.00 0.04 0.04 62 1013.9
20260905185516 91 0.0 3.0 0.00 0.04 0.04 61 1014.0
20260905184516 91 270 1.0 3.0 0.00 0.04 0.04 60 1014.2
20260905183516 91 0.0 3.0 0.00 0.04 0.04 61 1014.4
20260905182516 90 0.0 25.0 0.00 0.04 0.04 61 1014.6
20260905181536 90 0.0 1.0 0.00 0.04 0.04 61 1014.6
20260905180516 90 270 1.0 6.0 0.00 0.04 0.04 59 1014.7
20260905175516 89 270 1.0 11.0 0.00 0.04 0.04 60 1014.6
20260905174516 89 270 1.0 6.0 0.00 0.04 0.04 62 1014.6
20260905173516 88 0.0 0.0 0.00 0.04 0.04 65 1014.7
20260905172516 88 0.0 3.0 0.00 0.04 0.04 60 1014.8
20260905171556 88 0.0 4.0 0.00 0.04 0.04 64 1014.9
20260905170516 87 0.0 0.0 0.00 0.04 0.04 63 1015.0
20260905165516 86 225 1.0 4.0 0.00 0.04 0.04 65 1015.1
20260905164516 85 225 1.0 7.0 0.00 0.04 0.04 65 1015.1